Regional Weather Roundup
Issued by NWS

Home | Current Version | Previous Version | Graphics & Text | Print | Product List | Glossary Off
Versions: 1 2 3 4 5 6 7 8 9 10 11 12 13 14 15 16 17 18 19 20 21 22 23 24 25 26 27 28 29 30 31 32 33 34 35 36 37 38 39 40 41 42 43 44 45 46 47 48 49 50

000
ASUS43 KMPX 230210
RWRMN
WEATHER ROUNDUP FOR MINNESOTA
NATIONAL WEATHER SERVICE TWIN CITIES/CHANHASSEN MN
900 PM CDT TUE JUL 22 2014


NOTE: "FAIR" INDICATES FEW OR NO CLOUDS BELOW 12,000 FEET WITH NO
SIGNIFICANT WEATHER AND/OR OBSTRUCTIONS TO VISIBILITY. N/A MEANS
CURRENT SKY AND/OR WEATHER CONDITIONS ARE NOT AVAILABLE.

MNZ060>063-068>070-230300-
   Twin Cities Metro

CITY           SKY/WX    TMP DP  RH WIND       PRES   REMARKS
TWIN CITIES    FAIR      77  53  43 N10       30.11R
ST PAUL          N/A     75  54  47 N9        30.11R
CRYSTAL        FAIR      76  54  46 N6        30.11R
BLAINE         CLEAR     75  55  50 N8        30.12R
LAKEVILLE      FAIR      73  55  53 NW9       30.11S
EDEN PRAIRIE   FAIR      74  56  53 NW6       30.11R
SOUTH ST PAUL  FAIR      76  52  42 N8        30.11R
LAKE ELMO      FAIR      72  59  64 N6        30.12S
$$
MNZ001>005-007-008-013>017-022>024-027-028-230300-
   Northwest Minnesota

CITY           SKY/WX    TMP DP  RH WIND       PRES   REMARKS
BEMIDJI        FAIR      65  54  67 NW6       30.19R
HALLOCK        FAIR      70  55  60 N7        30.19S
ROSEAU         FAIR      68  57  68 N5        30.20R
WARROAD        FAIR      70  57  64 NW6       30.19R
THIEF RVR FALL FAIR      70  57  64 NW6       30.20S
CROOKSTON      FAIR      66  63  88 N5        30.21R
FOSSTON        FAIR      64  55  72 NW5       30.21R
DETROIT LAKES  FAIR      68  55  64 N6        30.22R
MOORHEAD       FAIR      70  64  83 N5        30.21R
PARK RAPIDS    FAIR      65  55  70 NW6       30.19S
$$
MNZ006-009>011-018-025>026-230300-
   North Central Minnesota

CITY           SKY/WX    TMP DP  RH WIND       PRES   REMARKS
BAUDETTE       FAIR      67  58  72 N8        30.19R
FLAG ISLAND    FAIR      70  54  56 NW15      30.17R
INTL FALLS     FAIR      64  56  75 W3        30.14R
WASKISH        FAIR      70  55  60 N3        30.18R
BIG FORK       FAIR      63  55  77 W1        30.18R
LONGVILLE      MOCLDY    63  61  94 CALM      30.18R
GRAND RAPIDS   FAIR      66  52  59 N5        30.17R
CRANE LAKE     MOCLDY    61  57  88 CALM      30.15R
ORR            FAIR      61  55  82 CALM      30.13R
COOK           FAIR      64  55  72 CALM      30.16R
$$
MNZ012-019>021-037-230300-
   Northeast Minnesota

CITY           SKY/WX    TMP DP  RH WIND       PRES   REMARKS
DULUTH         FAIR      68  55  63 N5        30.14R
ELY            FAIR      63  55  77 W3        30.14R
HIBBING        FAIR      61  55  81 NW3       30.16R
DULUTH HARBOR  FAIR      66  55  68 CALM      30.12R
TWO HARBORS    FAIR      64  55  72 CALM      30.11R
SILVER BAY     FAIR      61  61 100 CALM      30.11R
GRAND MARAIS     N/A     58  50  75 CALM      30.09R
G MARAIS ARPRT MOCLDY    61  52  72 NW3       30.14R
$$
MNZ029>031-032-039>041-046>048-054>057-064-230300-
   West Central Minnesota

CITY           SKY/WX    TMP DP  RH WIND       PRES   REMARKS
FERGUS FALLS   FAIR      66  55  68 N5        30.20R
WHEATON        FAIR      66  57  72 CALM      30.22R
MORRIS         FAIR      66  57  72 N7        30.19R
ALEXANDRIA     FAIR      70  57  63 N6        30.20R
ELBOW LAKE     FAIR      68  57  67 N7        30.19S
WADENA         FAIR      64  54  68 N5        30.19S
GLENWOOD       FAIR      66  57  72 N5        30.20R
APPLETON       FAIR      70  59  68 NW6       30.18S
BENSON         FAIR      64  59  82 N6        30.18R
ORTONVILLE     FAIR      70  57  64 N7        30.20R
MADISON        FAIR      73  55  53 N9        30.19S
WILLMAR        FAIR      72  55  56 N5        30.18S
$$
MNZ033>034-036-042>043-049>051-058-059-230300-
   Central Minnesota

CITY           SKY/WX    TMP DP  RH WIND       PRES   REMARKS
ST CLOUD       FAIR      73  55  53 N6        30.15R
SAUK CENTRE    FAIR      69  56  62 N6        30.18R
PAYNESVILLE    HVY RAIN  66  53  63 W3        30.18R
AITKIN         FAIR      70  55  60 NW3       30.15S
PINE RIVER     FAIR      66  55  68 CALM      30.21R
BRAINERD       FAIR      68  53  58 N6        30.17R
STAPLES        FAIR      66  55  68 N3        30.18R
LONG PRAIRIE   FAIR      66  54  63 NW6       30.19R
LITTLE FALLS   FAIR      70  52  52 CALM      30.17R
LITCHFIELD     FAIR      73  55  53 NW6       30.17R
BUFFALO        FAIR      73  54  50 NW6       30.15R
MAPLE LAKE     FAIR      72  58  62 NW3       30.15R
$$
MNZ037-044-045-052-053-230300-
   East Central Minnesota

CITY           SKY/WX    TMP DP  RH WIND       PRES   REMARKS
PRINCETON      FAIR      72  55  56 NW6       30.14R
MORA           FAIR      64  55  72 CALM      30.16R
CAMBRIDGE      FAIR      73  57  56 NW3       30.12R
RUSH CITY      FAIR      69  58  65 CALM      30.13R
MOOSE LAKE     FAIR      64  57  77 CALM      30.13R
HINCKLEY       FAIR      68  59  73 NW6       30.13S
CLOQUET        FAIR      68  54  60 NW5       30.15R
MCGREGOR       MOCLDY    68  57  68 NW5       30.16R
$$
MNZ071>073-080-081-089-090-097-098-230300-
   Southwest Minnesota

CITY           SKY/WX    TMP DP  RH WIND       PRES   REMARKS
MONTEVIDEO     FAIR      72  57  60 N6        30.18S
GRANITE FALLS  FAIR      70  58  66 NW7       30.19R
CANBY          FAIR      70  58  64 N5        30.20S
MARSHALL       FAIR      70  57  64 N5        30.17F
REDWOOD FALLS  FAIR      73  58  59 NW6       30.16R
OLIVIA         FAIR      70  55  60 NW5       30.16S
PIPESTONE      FAIR      72  55  56 N3        30.21R
WINDOM         FAIR      70  57  64 NW7       30.18R
WORTHINGTON    FAIR      70  57  64 N7        30.20R
JACKSON        FAIR      70  55  60 N7        30.17S
TRACY          FAIR      69  58  68 N6        30.19R
SLAYTON        FAIR      69  56  62 CALM      30.20S
$$
MNZ065>067-074>077-082>085-091>093-230300-
   South Central Minnesota

CITY           SKY/WX    TMP DP  RH WIND       PRES   REMARKS
MANKATO        FAIR      73  55  53 N9        30.13R
NEW ULM        FAIR      72  57  60 NW9       30.15R
ST JAMES       FAIR      72  57  60 NW7       30.16R
FAIRMONT       FAIR      72  55  56 N7        30.14S
GLENCOE        FAIR      74  53  47 NW6       30.14R
FARIBAULT      FAIR      75  54  46 NW5       30.12S
OWATONNA       FAIR      72  59  64 N6        30.12R
WASECA         FAIR      72  57  60 NW6       30.13S
ALBERT LEA     FAIR      73  61  64 NW5       30.12R
$$
MNZ078>079-086>088-094>096-230300-
   Southeast Minnesota

CITY           SKY/WX    TMP DP  RH WIND       PRES   REMARKS
ROCHESTER      FAIR      72  62  71 N7        30.11R
RED WING       FAIR      73  61  64 N5        30.08S
STANTON        FAIR      74  58  57 N7        30.10R
DODGE CENTER   FAIR      73  61  64 NW8       30.12R
WINONA         FAIR      73  63  68 NW6       30.07S
AUSTIN         FAIR      73  61  64 N8        30.10S
PRESTON        FAIR      72  67  85 N9        30.10R
$$
ABBREVIATIONS USED IN REMARKS
   TC - TEMPERATURES IN CELSIUS
  WCI - WIND CHILL INDEX
   HX - HEAT INDEX
  VSB - VISIBILITY
$$


USA.gov is the U.S. government's official web portal to all federal, state and local government web resources and services.